Ocala, FL

9:07 AM EDT on March 26, 2017 (GMT -0400)
Ocala Regional-Taylor

Weather History for KOCF - April, 2013

Change the Weather History Date:

Tuesday, April 30, 2013

  Actual Average Record
Temperature  
Mean Temperature 75 °F -  
Max Temperature 86 °F 82 °F 91 °F (2002)
Min Temperature 64 °F 58 °F 46 °F (2008)
Cooling Degree Days 10    
Growing Degree Days 25 (Base 50)    
Moisture  
Dew Point 63 °F    
Average Humidity 83    
Maximum Humidity 94    
Minimum Humidity 45    
Precipitation  
Precipitation 0.02 in - - ()
Sea Level Pressure  
Sea Level Pressure 29.99 in    
Wind  
Wind Speed 2 mph (ENE)    
Max Wind Speed 15 mph    
Max Gust Speed 20 mph    
Visibility 10 miles    
Events Rain    
Averages and records for this station are not official NWS values.
T = Trace of Precipitation, MM = Missing Value Source: NWS Daily Summary

Daily Weather History Graph

Daily Weather History Graph

Search for Another Location

Airport or City:

Trip Planner

Search our weather history database for the weather conditions in past years. The results will help you decide how hot, cold, wet, or windy it might be!

Date:

Astronomy

Apr. 30, 2013 Rise Set
Actual Time 6:47 AM EDT 8:04 PM EDT
Civil Twilight 6:22 AM EDT 8:29 PM EDT
Nautical Twilight 5:53 AM EDT 8:59 PM EDT
Astronomical Twilight 5:22 AM EDT 9:30 PM EDT
Moon 12:21 AM EDT (4/30) 11:19 AM EDT (4/30)
Length of Visible Light 14h 06m
Length of Day
13h 16m
Waning Gibbous, 70% of the Moon is Illuminated
Apr 30
Waning Gibbous
May 2
Last Quarter
May 9
New
May 18
First Quarter
May 25
Full

Hourly Weather History & Observations

Time (EDT) Temp. Heat Index Dew Point Humidity Pressure Visibility Wind Dir Wind Speed Gust Speed Precip Events Conditions
12:15 AM 66.2 °F - 60.8 °F 83% 29.99 in 10.0 mi Calm Calm - N/A   Clear
12:35 AM 64.4 °F - 60.8 °F 88% 29.99 in 10.0 mi Calm Calm - N/A   Partly Cloudy
12:55 AM 64.4 °F - 60.8 °F 88% 29.99 in 10.0 mi Calm Calm - N/A   Partly Cloudy
1:15 AM 64.4 °F - 60.8 °F 88% 29.98 in 10.0 mi Calm Calm - N/A   Clear
1:35 AM 64.4 °F - 60.8 °F 88% 29.97 in 10.0 mi SE 3.5 mph - N/A   Clear
1:55 AM 64.4 °F - 60.8 °F 88% 29.97 in 10.0 mi South 3.5 mph - N/A   Clear
2:15 AM 64.4 °F - 60.8 °F 88% 29.97 in 10.0 mi Calm Calm - N/A   Clear
2:35 AM 64.4 °F - 60.8 °F 88% 29.97 in 10.0 mi Calm Calm - N/A   Clear
2:55 AM 64.4 °F - 62.6 °F 94% 29.96 in 10.0 mi Calm Calm - N/A   Clear
3:15 AM 64.4 °F - 62.6 °F 94% 29.96 in 10.0 mi Calm Calm - N/A   Scattered Clouds
3:35 AM 64.4 °F - 62.6 °F 94% 29.97 in 10.0 mi Calm Calm - N/A   Mostly Cloudy
3:55 AM 64.4 °F - 62.6 °F 94% 29.97 in 10.0 mi Calm Calm - N/A   Overcast
4:15 AM 64.4 °F - 62.6 °F 94% 29.97 in 10.0 mi Calm Calm - N/A   Overcast
4:35 AM 64.4 °F - 62.6 °F 94% 29.96 in 10.0 mi North 4.6 mph - N/A   Mostly Cloudy
4:55 AM 64.4 °F - 62.6 °F 94% 29.95 in 10.0 mi NNE 3.5 mph - N/A   Overcast
5:15 AM 66.2 °F - 62.6 °F 88% 29.96 in 10.0 mi Calm Calm - N/A   Overcast
5:35 AM 64.4 °F - 62.6 °F 94% 29.95 in 10.0 mi Calm Calm - N/A   Mostly Cloudy
5:55 AM 64.4 °F - 62.6 °F 94% 29.96 in 9.0 mi Calm Calm - N/A   Partly Cloudy
6:15 AM 64.4 °F - 62.6 °F 94% 29.97 in 10.0 mi Calm Calm - N/A   Scattered Clouds
6:35 AM 64.4 °F - 62.6 °F 94% 29.98 in 10.0 mi Calm Calm - N/A   Mostly Cloudy
6:50 AM 64.4 °F - 62.6 °F 94% 29.98 in 10.0 mi Calm Calm - N/A   Overcast
7:50 AM 66.2 °F - 62.6 °F 88% 30.01 in 10.0 mi Calm Calm - N/A   Overcast
8:50 AM 66.2 °F - 62.6 °F 88% 30.01 in 10.0 mi Calm Calm - N/A   Overcast
9:50 AM 69.8 °F - 64.4 °F 83% 30.01 in 10.0 mi Calm Calm - N/A   Mostly Cloudy
10:50 AM 73.4 °F - 66.2 °F 78% 30.01 in 10.0 mi SW 5.8 mph - N/A   Partly Cloudy
11:50 AM 78.8 °F - 66.2 °F 65% 30.01 in 10.0 mi SW 4.6 mph - N/A   Scattered Clouds
12:50 PM 80.6 °F 82.3 °F 64.4 °F 58% 29.99 in 10.0 mi SE 5.8 mph - N/A   Scattered Clouds
1:50 PM 84.2 °F 85.6 °F 64.4 °F 51% 29.97 in 10.0 mi SSE 5.8 mph - N/A   Scattered Clouds
2:50 PM 86.0 °F 86.6 °F 62.6 °F 45% 29.95 in 10.0 mi ESE 5.8 mph - N/A   Scattered Clouds
3:50 PM 86.0 °F 86.6 °F 62.6 °F 45% 29.93 in 10.0 mi North 8.1 mph - N/A   Mostly Cloudy
4:50 PM 80.6 °F 81.5 °F 60.8 °F 51% 29.93 in 10.0 mi NNE 9.2 mph 16.1 mph N/A   Mostly Cloudy
5:54 PM 71.6 °F - 66.2 °F 83% 29.98 in 6.0 mi NW 15.0 mph 19.6 mph N/A Rain Light Rain
6:50 PM 71.6 °F - 66.2 °F 83% 29.96 in 10.0 mi NE 8.1 mph - N/A   Mostly Cloudy
7:55 PM 71.6 °F - 66.2 °F 83% 29.98 in 10.0 mi ENE 6.9 mph - N/A   Scattered Clouds
8:15 PM 71.6 °F - 64.4 °F 78% 30.00 in 10.0 mi East 6.9 mph - N/A   Clear
8:35 PM 69.8 °F - 64.4 °F 83% 30.01 in 10.0 mi East 4.6 mph - N/A   Clear
8:55 PM 69.8 °F - 64.4 °F 83% 30.02 in 10.0 mi East 4.6 mph - N/A   Clear
9:15 PM 69.8 °F - 64.4 °F 83% 30.03 in 10.0 mi East 4.6 mph - N/A   Clear
9:35 PM 69.8 °F - 64.4 °F 83% 30.04 in 10.0 mi East 4.6 mph - N/A   Clear
9:55 PM 69.8 °F - 64.4 °F 83% 30.04 in 10.0 mi East 3.5 mph - N/A   Clear
10:15 PM 69.8 °F - 64.4 °F 83% 30.04 in 10.0 mi East 4.6 mph - N/A   Clear
10:35 PM 69.8 °F - 64.4 °F 83% 30.04 in 10.0 mi Calm Calm - N/A   Clear
10:55 PM 68.0 °F - 64.4 °F 88% 30.04 in 10.0 mi NE 3.5 mph - N/A   Clear
11:15 PM 68.0 °F - 64.4 °F 88% 30.04 in 10.0 mi NE 3.5 mph - N/A   Clear
11:35 PM 66.2 °F - 64.4 °F 94% 30.04 in 10.0 mi NNE 3.5 mph - N/A   Clear
11:55 PM 66.2 °F - 64.4 °F 94% 30.04 in 10.0 mi Calm Calm - N/A   Mostly Cloudy